User: anonymous   Login
Location: Branche des Alpilles
(43.6087°N, 4.6976°E)
Time: 05:32:31
(UTC+00:00)
Language:

Cosmos 2239 Rocket - Orbit

View from above orbital plane
View from above orbital plane
View from above satellite
View from above satellite

Ground track
Ground track

The orbit data is extracted from the following two-line orbital elements,

1 22591U 93020B   21055.92220956  .00000088  00000-0  72932-4 0  9994
2 22591  82.9278 114.8759 0025009 194.2681 339.4341 13.77444279402156
Epoch (UTC): 24 February 2021 22:07:58
Eccentricity: 0.0025009
inclination: 82.9278°
perigee height: 954 km
apogee height: 991 km
right ascension of ascending node: 114.8759°
argument of perigee: 194.2681°
revolutions per day: 13.77444279
mean anomaly at epoch: 339.4341°
orbit number at epoch: 40215

The dashed part of the orbit path shows where the satellite is in the earth's shadow,  

DLR